TimeMDT,TemperatureF,Dew PointF,Humidity,Sea Level PressureIn,VisibilityMPH,Wind Direction,Wind SpeedMPH,Gust SpeedMPH,PrecipitationIn,Events,Conditions,WindDirDegrees,DateUTC
12:56 AM,32.0,19.9,61,30.25,10.0,Variable,3.5,-,N/A,,Overcast,0,2013-04-24 06:56:00
1:56 AM,28.9,21.0,72,30.27,10.0,Calm,Calm,-,N/A,,Overcast,0,2013-04-24 07:56:00
2:56 AM,30.9,19.0,61,30.25,10.0,Calm,Calm,-,N/A,,Overcast,0,2013-04-24 08:56:00
3:56 AM,27.0,19.0,72,30.27,10.0,SSW,3.5,-,N/A,,Partly Cloudy,210,2013-04-24 09:56:00
4:56 AM,24.1,16.0,71,30.30,10.0,South,4.6,-,N/A,,Clear,190,2013-04-24 10:56:00
5:56 AM,19.9,15.1,81,30.32,10.0,SSE,4.6,-,N/A,,Mostly Cloudy,150,2013-04-24 11:56:00
6:56 AM,28.0,19.9,72,30.31,10.0,SSE,5.8,-,N/A,,Overcast,160,2013-04-24 12:56:00
7:56 AM,30.9,21.0,67,30.32,10.0,South,3.5,-,N/A,,Overcast,190,2013-04-24 13:56:00
8:56 AM,35.1,21.0,57,30.33,10.0,Calm,Calm,-,N/A,,Mostly Cloudy,0,2013-04-24 14:56:00
9:56 AM,39.0,19.0,45,30.32,10.0,Variable,3.5,-,N/A,,Clear,0,2013-04-24 15:56:00
10:56 AM,42.1,19.0,40,30.30,10.0,Calm,Calm,-,N/A,,Clear,0,2013-04-24 16:56:00
11:56 AM,45.0,18.0,34,30.27,10.0,Variable,3.5,-,N/A,,Scattered Clouds,0,2013-04-24 17:56:00
12:56 PM,46.9,18.0,32,30.22,10.0,Variable,5.8,-,N/A,,Scattered Clouds,0,2013-04-24 18:56:00
1:56 PM,51.1,17.1,26,30.19,10.0,SW,8.1,-,N/A,,Partly Cloudy,220,2013-04-24 19:56:00
2:56 PM,52.0,16.0,24,30.14,10.0,West,8.1,-,N/A,,Clear,280,2013-04-24 20:56:00
3:56 PM,54.0,14.0,21,30.10,10.0,Variable,4.6,-,N/A,,Clear,0,2013-04-24 21:56:00
4:56 PM,57.0,12.9,18,30.06,10.0,West,9.2,23.0,N/A,,Clear,260,2013-04-24 22:56:00
5:56 PM,57.9,12.9,17,30.04,10.0,West,11.5,20.7,N/A,,Clear,270,2013-04-24 23:56:00
6:56 PM,57.9,10.0,15,29.99,10.0,WSW,15.0,-,N/A,,Clear,240,2013-04-25 00:56:00
7:56 PM,54.0,12.0,19,29.97,10.0,West,9.2,-,N/A,,Clear,260,2013-04-25 01:56:00
8:56 PM,50.0,12.9,23,29.99,10.0,SW,9.2,-,N/A,,Clear,230,2013-04-25 02:56:00
9:56 PM,48.0,14.0,26,29.99,10.0,WSW,9.2,-,N/A,,Clear,250,2013-04-25 03:56:00
10:56 PM,43.0,17.1,35,30.00,10.0,East,3.5,-,N/A,,Clear,80,2013-04-25 04:56:00
11:56 PM,46.9,16.0,29,29.96,10.0,WNW,5.8,-,N/A,,Clear,290,2013-04-25 05:56:00